GW5270 Weather Reports


time (UTC)temp
F
wind
direction
speed
knots
gust
knots
rain 1hr
in
rain 24hr
in
rain mn
in
humidity
%
barometer
mb
20260510034000 55 227 0.9 2.6 0.00 0.00 0.00 79 1013.9
20260510033456 55 254 1.7 2.6 0.00 0.00 0.00 79 1014.0
20260510032954 55 236 0.9 2.6 0.00 0.00 0.00 79 1013.9
20260510032451 55 240 0.0 1.7 0.00 0.00 0.00 79 1013.9
20260510031950 55 213 0.0 0.9 0.00 0.00 0.00 80 1013.8
20260510031446 55 223 0.0 0.0 0.00 0.00 0.00 79 1013.9
20260510030942 56 240 0.0 0.0 0.00 0.00 0.00 78 1013.8
20260510030437 56 235 0.0 1.7 0.00 0.00 0.00 77 1013.9
20260510025935 56 226 1.7 2.6 0.00 0.00 0.00 77 1014.0
20260510025432 56 246 0.0 3.5 0.00 0.00 0.00 78 1013.7
20260510024930 55 240 2.6 2.6 0.00 0.00 0.00 79 1013.5
20260510024426 56 248 0.9 2.6 0.00 0.00 0.00 78 1013.7
20260510023922 56 223 1.7 2.6 0.00 0.00 0.00 77 1013.7
20260510023419 56 216 0.0 0.9 0.00 0.00 0.00 78 1013.5
20260510022916 57 223 0.0 1.7 0.00 0.00 0.00 77 1013.6
20260510022415 56 260 0.0 0.0 0.00 0.00 0.00 78 1013.7
20260510021914 57 261 0.9 1.7 0.00 0.00 0.00 77 1013.6
20260510021412 57 220 1.7 2.6 0.00 0.00 0.00 76 1013.6
20260510020909 57 216 0.9 3.5 0.00 0.00 0.00 76 1013.4
20260510020403 57 217 0.9 2.6 0.00 0.00 0.00 76 1013.5
20260510015859 57 238 2.6 3.5 0.00 0.00 0.00 76 1013.3
20260510015355 56 234 0.9 1.7 0.00 0.00 0.00 77 1013.4
20260510014851 56 220 0.0 1.7 0.00 0.00 0.00 78 1013.2
20260510014349 56 231 0.0 0.0 0.00 0.00 0.00 78 1013.2
20260510013844 55 239 0.0 0.0 0.00 0.00 0.00 80 1013.1
20260510013340 56 216 0.0 0.0 0.00 0.00 0.00 78 1013.0
20260510012835 56 216 0.0 0.0 0.00 0.00 0.00 78 1013.0
20260510012330 56 217 0.0 0.0 0.00 0.00 0.00 77 1012.8
20260510011825 56 216 0.0 0.0 0.00 0.00 0.00 77 1012.7
20260510011321 55 239 0.0 0.0 0.00 0.00 0.00 78 1012.7
20260510010817 56 243 0.0 0.0 0.00 0.00 0.00 77 1012.9
20260510010315 56 243 0.0 0.0 0.00 0.00 0.00 78 1012.7
20260510005811 57 243 0.0 0.0 0.00 0.00 0.00 75 1012.4
20260510005307 58 243 0.0 0.0 0.00 0.00 0.00 73 1012.6
20260510004805 58 243 0.0 0.9 0.00 0.00 0.00 72 1012.4
20260510004303 59 234 0.0 0.0 0.00 0.00 0.00 71 1012.3
20260510003800 60 235 0.0 0.0 0.00 0.00 0.00 69 1012.2
20260510003256 60 235 0.0 0.0 0.00 0.00 0.00 68 1012.1
20260510002755 60 256 0.0 0.9 0.00 0.00 0.00 68 1012.0
20260510002253 61 195 0.9 1.7 0.00 0.00 0.00 67 1011.9
20260510001749 61 215 0.0 0.0 0.00 0.00 0.00 66 1011.8
20260510001248 62 242 0.0 1.7 0.00 0.00 0.00 65 1012.0
20260510000743 62 234 0.9 0.9 0.00 0.00 0.00 63 1011.9
20260510000241 63 255 1.7 2.6 0.00 0.00 0.00 61 1011.7
20260509235738 63 276 2.6 5.2 0.00 0.00 0.00 61 1011.8
20260509235234 64 211 1.7 3.5 0.00 0.00 0.00 60 1011.8
20260509234730 64 263 0.9 5.2 0.00 0.00 0.00 60 1011.7
20260509234227 64 297 7.0 11.3 0.00 0.00 0.00 59 1011.6
20260509233725 64 282 4.3 7.0 0.00 0.00 0.00 59 1011.6
20260509233223 64 293 2.6 2.6 0.00 0.00 0.00 62 1011.7
20260509232718 65 263 1.7 3.5 0.00 0.00 0.00 62 1011.6
20260509232216 65 252 1.7 5.2 0.00 0.00 0.00 59 1011.6
20260509231712 64 281 2.6 3.5 0.00 0.00 0.00 61 1011.5
20260509231210 64 212 2.6 5.2 0.00 0.00 0.00 62 1011.7
20260509230707 64 244 0.9 2.6 0.00 0.00 0.00 63 1011.7
20260509230203 64 219 3.5 6.1 0.00 0.00 0.00 60 1011.9
20260509225659 66 322 3.5 7.8 0.00 0.00 0.00 57 1011.8
20260509225155 66 248 1.7 2.6 0.00 0.00 0.00 59 1012.0
20260509224650 66 281 1.7 5.2 0.00 0.00 0.00 59 1011.9
20260509224147 66 195 4.3 7.8 0.00 0.00 0.00 60 1011.7
20260509223644 66 233 3.5 9.6 0.00 0.00 0.00 58 1011.9
20260509223141 66 302 3.5 3.5 0.00 0.00 0.00 56 1012.0
20260509222638 66 257 3.5 6.1 0.00 0.00 0.00 58 1011.8
20260509222133 67 202 3.5 9.6 0.00 0.00 0.00 59 1011.8
20260509221630 66 277 2.6 5.2 0.00 0.00 0.00 58 1011.7
20260509221126 66 286 5.2 7.0 0.00 0.00 0.00 58 1012.0
20260509220622 66 269 5.2 7.8 0.00 0.00 0.00 56 1012.1
20260509220118 66 215 2.6 6.1 0.00 0.00 0.00 60 1012.0
20260509215614 67 263 4.3 7.8 0.00 0.00 0.00 56 1011.8
20260509215111 67 284 4.3 7.8 0.00 0.00 0.00 56 1012.1
20260509214608 65 289 1.7 3.5 0.00 0.00 0.00 59 1012.2
20260509214105 66 261 4.3 6.1 0.00 0.00 0.00 57 1012.1
20260509213600 65 242 1.7 5.2 0.00 0.00 0.00 60 1012.1
20260509213057 65 355 4.3 7.0 0.00 0.00 0.00 59 1012.1
20260509212555 64 232 1.7 2.6 0.00 0.00 0.00 60 1012.2
20260509212052 64 315 3.5 7.0 0.00 0.00 0.00 62 1011.9
20260509211547 65 237 4.3 7.0 0.00 0.00 0.00 58 1012.0
20260509211044 66 309 5.2 8.7 0.00 0.00 0.00 56 1012.1
20260509210541 65 253 3.5 7.0 0.00 0.00 0.00 59 1012.0
20260509210037 64 292 5.2 7.8 0.00 0.00 0.00 59 1012.0
20260509205532 65 306 1.7 3.5 0.00 0.00 0.00 60 1012.1
20260509205028 64 280 3.5 7.0 0.00 0.00 0.00 60 1011.9
20260509204524 64 230 4.3 6.1 0.00 0.00 0.00 60 1011.9
20260509204021 64 320 4.3 7.0 0.00 0.00 0.00 60 1011.9
20260509203517 65 251 7.8 12.2 0.00 0.00 0.00 57 1011.9
20260509203015 65 307 6.1 9.6 0.00 0.00 0.00 62 1011.9
20260509202514 65 353 5.2 7.8 0.00 0.00 0.00 58 1011.9
20260509202010 66 305 5.2 8.7 0.00 0.00 0.00 54 1011.8
20260509201505 65 301 6.1 7.8 0.00 0.00 0.00 57 1011.9
20260509201003 64 267 4.3 6.1 0.00 0.00 0.00 57 1012.1
20260509200458 64 281 4.3 7.0 0.00 0.00 0.00 57 1012.2
20260509195954 63 276 5.2 8.7 0.00 0.00 0.00 58 1012.2
20260509195450 64 319 8.7 13.0 0.00 0.00 0.00 57 1012.1
20260509194949 64 218 5.2 7.8 0.00 0.00 0.00 60 1012.3
20260509194445 64 267 2.6 6.1 0.00 0.00 0.00 58 1012.1
20260509193942 64 286 1.7 7.0 0.00 0.00 0.00 59 1012.2
20260509193442 64 331 5.2 9.6 0.00 0.00 0.00 60 1012.4
20260509192938 65 298 6.1 9.6 0.00 0.00 0.00 57 1012.2
20260509192435 64 324 4.3 9.6 0.00 0.00 0.00 57 1012.3
20260509191930 64 294 5.2 13.0 0.00 0.00 0.00 59 1012.1
20260509191426 64 246 4.3 9.6 0.00 0.00 0.00 59 1012.0
20260509190922 64 329 3.5 5.2 0.00 0.00 0.00 58 1012.1
20260509190419 65 343 5.2 7.0 0.00 0.00 0.00 57 1012.2
20260509185917 64 271 4.3 5.2 0.00 0.00 0.00 58 1012.2
20260509185414 63 319 5.2 7.0 0.00 0.00 0.00 58 1012.1
20260509184911 63 325 7.0 8.7 0.00 0.00 0.00 59 1012.2
20260509184408 63 327 7.8 9.6 0.00 0.00 0.00 59 1012.2
20260509183905 63 296 2.6 7.0 0.00 0.00 0.00 59 1012.1
20260509183359 63 241 4.3 9.6 0.00 0.00 0.00 59 1011.9
20260509182855 63 294 4.3 8.7 0.00 0.00 0.00 57 1011.9
20260509182352 63 304 5.2 9.6 0.00 0.00 0.00 56 1011.9
20260509181850 63 279 7.8 12.2 0.00 0.00 0.00 57 1011.8
20260509181347 63 151 4.3 7.8 0.00 0.00 0.00 58 1011.8
20260509180845 63 293 6.1 7.8 0.00 0.00 0.00 56 1011.9
20260509180340 63 289 0.0 7.0 0.00 0.00 0.00 58 1011.9
20260509175837 64 261 10.4 13.0 0.00 0.00 0.00 54 1011.8
20260509175333 63 274 1.7 3.5 0.00 0.00 0.00 55 1012.1
20260509174829 63 311 4.3 7.0 0.00 0.00 0.00 54 1012.0
20260509174325 63 305 3.5 6.1 0.00 0.00 0.00 56 1012.0
20260509173821 63 321 3.5 5.2 0.00 0.00 0.00 59 1012.0
20260509173317 62 263 4.3 7.8 0.00 0.00 0.00 54 1012.2
20260509172813 63 242 0.9 5.2 0.00 0.00 0.00 56 1012.2
20260509172310 62 249 2.6 5.2 0.00 0.00 0.00 56 1012.0
20260509171806 62 192 4.3 5.2 0.00 0.00 0.00 56 1012.1
20260509171302 63 297 2.6 7.0 0.00 0.00 0.00 56 1012.0
20260509170759 63 274 1.7 3.5 0.00 0.00 0.00 61 1012.2
20260509170254 63 280 2.6 5.2 0.00 0.00 0.00 59 1012.2
20260509165754 62 256 0.0 3.5 0.00 0.00 0.00 59 1012.2
20260509165249 61 239 0.0 2.6 0.00 0.00 0.00 62 1012.4
20260509164745 61 221 1.7 3.5 0.00 0.00 0.00 61 1012.4
20260509164241 60 218 1.7 3.5 0.00 0.00 0.00 59 1012.3
20260509163738 60 196 0.9 3.5 0.00 0.00 0.00 63 1012.2
20260509163234 60 206 2.6 5.2 0.00 0.00 0.00 59 1012.4
20260509162733 60 248 2.6 2.6 0.00 0.00 0.00 59 1012.3
20260509162227 60 206 2.6 2.6 0.00 0.00 0.00 62 1012.3
20260509161723 59 213 1.7 2.6 0.00 0.00 0.00 65 1012.4
20260509161220 59 245 0.9 3.5 0.00 0.00 0.00 64 1012.6
20260509160721 59 236 0.9 3.5 0.00 0.00 0.00 65 1012.7
20260509160217 59 240 1.7 3.5 0.00 0.00 0.00 63 1012.8
20260509155712 59 229 0.0 2.6 0.00 0.00 0.00 64 1012.6
20260509155209 59 215 0.9 3.5 0.00 0.00 0.00 63 1012.6
20260509154705 60 206 1.7 3.5 0.00 0.00 0.00 66 1012.8
20260509154202 60 250 2.6 3.5 0.00 0.00 0.00 66 1013.0
20260509153659 60 260 0.9 2.6 0.00 0.00 0.00 69 1012.7
20260509153156 59 267 3.5 3.5 0.00 0.00 0.00 70 1012.9
20260509152652 59 156 1.7 2.6 0.00 0.00 0.00 67 1012.9
20260509152149 59 231 0.9 1.7 0.00 0.00 0.00 70 1012.8
20260509151645 59 167 0.9 1.7 0.00 0.00 0.00 69 1012.9
20260509151143 58 195 0.0 0.9 0.00 0.00 0.00 72 1013.0
20260509150641 58 69 0.0 1.7 0.00 0.00 0.00 72 1013.2
20260509150139 58 141 0.9 1.7 0.00 0.00 0.00 73 1013.3
20260509145635 57 157 0.0 1.7 0.00 0.00 0.00 74 1013.1
20260509145130 57 172 0.9 3.5 0.00 0.00 0.00 71 1013.2
20260509144627 57 162 0.9 3.5 0.00 0.00 0.00 75 1013.1
20260509144124 57 135 0.9 2.6 0.00 0.00 0.00 73 1013.2
20260509143621 57 135 1.7 2.6 0.00 0.00 0.00 74 1013.1
20260509143119 57 195 1.7 1.7 0.00 0.00 0.00 73 1013.0
20260509142613 56 185 1.7 2.6 0.00 0.00 0.00 74 1012.9
20260509142110 56 126 0.0 1.7 0.00 0.00 0.00 75 1013.2
20260509141606 56 119 0.9 1.7 0.00 0.00 0.00 75 1013.0
20260509141103 55 106 1.7 2.6 0.00 0.00 0.00 75 1013.1
20260509140600 55 119 1.7 2.6 0.00 0.00 0.00 75 1013.3
20260509140058 56 67 0.0 0.9 0.00 0.00 0.00 76 1013.2
20260509135555 55 72 0.0 0.9 0.00 0.00 0.00 78 1013.2
20260509135052 55 70 0.0 0.0 0.00 0.00 0.00 79 1013.2
20260509134549 55 60 0.0 0.0 0.00 0.00 0.00 78 1013.3
20260509134047 55 61 0.0 0.0 0.00 0.00 0.00 76 1013.3
20260509133543 55 61 0.0 0.0 0.00 0.00 0.00 77 1013.4
20260509133041 55 58 0.0 0.0 0.00 0.00 0.00 78 1013.5
20260509132539 55 37 0.0 0.0 0.00 0.00 0.00 77 1013.5
20260509132037 55 63 0.0 0.0 0.00 0.00 0.00 76 1013.3
20260509131533 55 58 0.0 0.9 0.00 0.00 0.00 79 1013.3
20260509131030 55 58 0.9 1.7 0.00 0.00 0.00 80 1013.2
20260509130525 55 50 0.0 0.0 0.00 0.00 0.00 77 1013.3
20260509130023 54 36 0.0 0.0 0.00 0.00 0.00 80 1013.3
20260509125519 53 351 0.0 0.0 0.00 0.00 0.00 81 1013.3
20260509125016 53 351 0.0 0.0 0.00 0.00 0.00 82 1013.2
20260509124512 53 38 0.0 0.0 0.00 0.00 0.00 82 1013.2
20260509124010 52 78 0.0 0.0 0.00 0.00 0.00 85 1013.3
20260509123508 52 79 0.0 0.0 0.00 0.00 0.00 85 1013.5
20260509123003 52 90 0.0 0.0 0.00 0.00 0.00 84 1013.5
20260509122500 52 90 0.0 0.0 0.00 0.00 0.00 84 1013.4
20260509121957 52 96 0.0 0.0 0.00 0.00 0.00 83 1013.3
20260509121453 52 97 0.0 0.0 0.00 0.00 0.00 84 1013.3
20260509120952 52 97 0.0 0.0 0.00 0.00 0.00 84 1013.5
20260509120449 52 97 0.0 0.0 0.00 0.00 0.00 84 1013.5
20260509115947 52 96 0.0 0.0 0.00 0.00 0.00 83 1013.3
20260509115444 52 88 0.0 0.0 0.00 0.00 0.00 83 1013.5
20260509114941 52 91 0.0 0.0 0.00 0.00 0.00 81 1013.5
20260509114440 52 104 0.0 0.9 0.00 0.00 0.00 82 1013.5
20260509113939 52 84 0.0 1.7 0.00 0.00 0.00 81 1013.5
20260509113436 52 64 0.0 0.0 0.00 0.00 0.00 80 1013.4
20260509112933 52 67 0.9 0.9 0.00 0.00 0.00 80 1013.6
20260509112430 52 115 1.7 3.5 0.00 0.00 0.00 80 1013.4
20260509111927 52 109 2.6 2.6 0.00 0.00 0.00 80 1013.4
20260509111424 52 79 0.0 0.0 0.00 0.00 0.00 81 1013.4
20260509110921 52 79 0.0 0.9 0.00 0.00 0.00 81 1013.2
20260509110417 52 78 0.9 1.7 0.00 0.00 0.00 79 1013.4
20260509105916 52 74 0.0 0.0 0.00 0.00 0.00 79 1013.4
20260509105414 52 74 0.0 0.0 0.00 0.00 0.00 79 1013.3
20260509104910 51 74 0.0 0.0 0.00 0.00 0.00 79 1013.4
20260509104407 51 74 0.0 0.0 0.00 0.00 0.00 80 1013.4
20260509103904 52 74 0.0 0.0 0.00 0.00 0.00 80 1013.2
20260509103401 52 67 0.0 0.9 0.00 0.00 0.00 79 1013.3
20260509102900 52 57 0.0 0.0 0.00 0.00 0.00 78 1013.2
20260509102357 52 57 0.0 0.0 0.00 0.00 0.00 78 1013.2
20260509101853 52 51 0.9 1.7 0.00 0.00 0.00 76 1013.2
20260509101349 52 30 0.0 0.0 0.00 0.00 0.00 77 1013.4
20260509100847 52 30 0.0 0.0 0.00 0.00 0.00 76 1013.4
20260509100344 52 30 0.0 0.0 0.00 0.00 0.00 76 1013.5
20260509095841 52 30 0.0 0.0 0.00 0.00 0.00 75 1013.4
20260509095338 52 30 0.0 0.0 0.00 0.00 0.00 75 1013.2
20260509094835 53 30 0.0 0.0 0.00 0.00 0.00 74 1013.2
20260509094331 53 30 0.0 0.9 0.00 0.00 0.00 74 1013.3
20260509093829 53 30 0.0 0.0 0.00 0.00 0.00 73 1013.4
20260509093326 53 340 0.9 0.9 0.00 0.00 0.00 73 1013.5
20260509092825 53 1 0.0 0.0 0.00 0.00 0.00 72 1013.4
20260509092322 53 1 0.0 0.0 0.00 0.00 0.00 71 1013.4
20260509091820 53 338 0.0 0.0 0.00 0.00 0.00 71 1013.5
20260509091317 53 305 0.0 0.0 0.00 0.00 0.00 71 1013.5
20260509090814 53 347 1.7 1.7 0.00 0.00 0.00 70 1013.4
20260509090311 53 318 2.6 3.5 0.00 0.00 0.00 68 1013.4
20260509085808 53 18 1.7 2.6 0.00 0.00 0.00 69 1013.3
20260509085306 53 321 1.7 1.7 0.00 0.00 0.00 70 1013.5
20260509084802 55 359 1.7 7.8 0.00 0.00 0.00 68 1013.3
20260509084259 53 245 0.0 0.9 0.00 0.00 0.00 64 1013.0
20260509083757 53 34 0.0 0.0 0.00 0.00 0.00 71 1013.0
20260509083253 53 34 0.0 0.0 0.00 0.00 0.00 69 1013.1
20260509082750 53 32 0.0 0.0 0.00 0.00 0.00 71 1013.3
20260509082247 53 32 0.0 0.0 0.00 0.00 0.00 69 1013.3
20260509081744 53 350 0.9 0.9 0.00 0.00 0.00 69 1013.5
20260509081241 53 333 0.0 2.6 0.00 0.00 0.00 76 1013.4
20260509080739 53 229 0.9 0.9 0.00 0.00 0.00 74 1013.3
20260509080236 54 247 0.9 0.9 0.00 0.00 0.00 71 1013.3
20260509075734 54 248 0.0 0.9 0.00 0.00 0.00 66 1013.1
20260509075232 54 248 0.0 0.0 0.00 0.00 0.00 67 1013.4
20260509074729 55 248 0.0 0.0 0.00 0.00 0.00 62 1013.0
20260509074226 55 237 0.0 0.0 0.00 0.00 0.00 62 1012.8
20260509073722 54 215 0.9 1.7 0.00 0.00 0.00 61 1012.8
20260509073219 55 224 0.0 1.7 0.00 0.00 0.00 62 1013.0
20260509072715 54 247 0.0 0.0 0.00 0.00 0.00 63 1013.0
20260509072212 54 247 0.0 0.0 0.00 0.00 0.00 64 1012.8
20260509071709 55 247 0.0 0.0 0.00 0.00 0.00 61 1012.9
20260509071206 55 247 0.0 0.0 0.00 0.00 0.00 61 1012.8
20260509070703 55 248 0.0 0.0 0.00 0.00 0.00 60 1012.9
20260509070159 55 214 0.0 0.9 0.00 0.00 0.00 62 1013.1
20260509065655 55 214 0.0 2.6 0.00 0.00 0.00 62 1012.9
20260509065152 55 223 1.7 2.6 0.00 0.00 0.00 62 1012.9
20260509064649 55 224 0.0 0.9 0.00 0.00 0.00 62 1013.0
20260509064147 55 222 0.9 1.7 0.00 0.00 0.00 60 1012.9
20260509063643 55 212 1.7 2.6 0.00 0.00 0.00 62 1013.1
20260509063140 55 225 2.6 5.2 0.00 0.00 0.00 61 1013.0
20260509062637 55 207 0.0 1.7 0.00 0.00 0.00 63 1012.8
20260509062134 55 214 3.5 3.5 0.00 0.00 0.00 61 1013.0
20260509061631 55 222 2.6 3.5 0.00 0.00 0.00 62 1013.0
20260509061128 54 248 1.7 1.7 0.00 0.00 0.00 63 1012.8
20260509060626 54 231 3.5 3.5 0.00 0.00 0.00 63 1012.9
20260509060121 54 265 0.9 1.7 0.00 0.00 0.00 67 1013.0
20260509055617 54 219 1.7 2.6 0.00 0.00 0.00 64 1012.9
20260509055113 55 228 0.9 2.6 0.00 0.00 0.00 64 1013.0
20260509054610 54 240 0.9 2.6 0.00 0.00 0.00 66 1013.3
20260509054108 54 234 1.7 1.7 0.00 0.00 0.00 65 1013.2
20260509053606 54 268 0.9 0.9 0.00 0.00 0.00 66 1013.4
20260509053103 54 251 0.0 2.6 0.00 0.00 0.00 65 1013.5
20260509052601 54 288 0.0 1.7 0.00 0.00 0.00 64 1013.4
20260509052058 53 257 0.0 0.9 0.00 0.00 0.00 67 1013.3
20260509051556 53 253 0.0 0.0 0.00 0.00 0.00 69 1013.6
20260509051053 53 272 0.0 0.0 0.00 0.00 0.00 68 1013.5
20260509050550 54 272 0.0 0.0 0.00 0.00 0.00 66 1013.6
20260509050046 55 272 0.0 0.9 0.00 0.00 0.00 65 1013.5
20260509045544 55 236 0.9 1.7 0.00 0.00 0.00 64 1013.7
20260509045040 54 258 0.0 0.0 0.00 0.00 0.00 66 1013.6
20260509044538 54 232 0.0 0.9 0.00 0.00 0.00 66 1013.7
20260509044035 54 232 0.9 0.9 0.00 0.00 0.00 67 1013.9
20260509043532 54 271 0.0 0.0 0.00 0.00 0.00 67 1013.8
20260509043027 55 271 0.0 0.9 0.00 0.00 0.00 68 1013.8
20260509042523 54 236 0.0 0.9 0.00 0.00 0.00 63 1013.7
20260509042020 55 236 0.0 0.0 0.00 0.00 0.00 63 1013.8
20260509041517 55 277 1.7 1.7 0.00 0.00 0.00 64 1013.9
20260509041014 55 250 0.9 1.7 0.00 0.00 0.00 63 1014.0
20260509040513 55 289 0.9 0.9 0.00 0.00 0.00 63 1013.8
20260509040009 55 289 0.9 2.6 0.00 0.00 0.00 62 1013.9
20260509035506 55 255 0.0 0.9 0.00 0.00 0.00 65 1013.8
20260509035002 55 225 0.0 0.0 0.00 0.00 0.00 66 1014.0
20260509034501 55 225 0.0 0.9 0.00 0.00 0.00 63 1013.9